Princeton, British Columbia

9:10 AM PDT on April 21, 2018 (GMT -0700)
Princeton

Weather History for CWPR - November, 2012

Change the Weather History Date:

Wednesday, November 14, 2012

  Actual Average (CYDC) Record (CYDC)
Temperature  
Mean Temperature 34 °F -  
Max Temperature 37 °F 37 °F 55 °F (2016)
Min Temperature 30 °F 26 °F 0 °F (2014)
Degree Days  
Heating Degree Days 32    
Moisture  
Dew Point 32 °F    
Average Humidity 94    
Maximum Humidity 100    
Minimum Humidity 84    
Precipitation  
Precipitation 0.00 in - - ()
Sea Level Pressure  
Sea Level Pressure 30.29 in    
Wind  
Wind Speed 0 mph ()    
Max Wind Speed 2 mph    
Max Gust Speed -    
Averages and records for this station are not official NWS values.
T = Trace of Precipitation, MM = Missing Value Source: Averaged Metar Reports

Daily Weather History Graph

Daily Weather History Graph

Search for Another Location

Airport or City:

Astronomy

Nov. 14, 2012 Rise Set
Actual Time 7:12 AM PST 4:20 PM PST
Civil Twilight 6:37 AM PST 4:55 PM PST
Nautical Twilight 5:58 AM PST 5:33 PM PST
Astronomical Twilight 5:20 AM PST 6:11 PM PST
Moon 8:13 AM PST (11/14) 5:07 PM PST (11/14)
Length of Visible Light 10h 17m
Length of Day
9h 07m
New Moon, 1% of the Moon is Illuminated
Nov 14
New Moon
Nov 20
First Quarter
Nov 28
Full
Dec 6
Last Quarter
Dec 13
New

Hourly Weather History & Observations

Time (PST) Temp. Dew Point Humidity Pressure Visibility Wind Dir Wind Speed Gust Speed Precip Events Conditions
12:00 AM 31.5 °F 31.6 °F 100% 30.18 in - Calm Calm - N/A   Unknown
1:00 AM 31.6 °F 31.3 °F 99% 30.19 in - Calm Calm - N/A   Unknown
2:00 AM 31.8 °F 31.1 °F 97% - - Calm Calm - N/A   Unknown
3:00 AM 31.6 °F 31.6 °F 100% 30.19 in - Calm Calm - N/A   Unknown
4:00 AM 33 °F 32 °F 94% 30.19 in - Calm Calm - -  
4:00 AM 31.3 °F 32.0 °F 100% 30.19 in - Calm Calm - N/A   Unknown
5:00 AM 33.1 °F 32.0 °F 96% 30.21 in - Calm Calm - N/A   Unknown
6:00 AM 31.5 °F 31.8 °F 100% 30.23 in - Calm Calm - N/A   Unknown
7:00 AM 31.3 °F 31.8 °F 100% 30.25 in - South 1.2 mph - N/A   Unknown
8:00 AM 32.9 °F 32.0 °F 96% 30.27 in - Calm Calm - N/A   Unknown
9:00 AM 34.0 °F 32.0 °F 92% 30.28 in - Calm Calm - N/A   Unknown
10:00 AM 34 °F 32 °F 90% 30.30 in - NNE 1.2 mph - -  
10:00 AM 34.3 °F 31.8 °F 90% 30.30 in - NNE 1.2 mph - N/A   Unknown
11:00 AM 35.2 °F 31.8 °F 87% 30.31 in - Calm Calm - N/A   Unknown
12:00 PM 35.1 °F 31.8 °F 88% 30.31 in - West 1.2 mph - N/A   Unknown
1:00 PM 35.8 °F 31.5 °F 84% 30.30 in - Calm Calm - N/A   Unknown
2:00 PM 36.5 °F 33.1 °F 87% 30.30 in - Calm Calm - N/A   Unknown
3:00 PM 37.4 °F 33.4 °F 86% 30.30 in - Calm Calm - N/A   Unknown
4:00 PM 35 °F 32 °F 84% 30.32 in - Calm Calm - -  
4:00 PM 34.7 °F 32.0 °F 90% 30.32 in - Calm Calm - N/A   Unknown
5:00 PM 31.1 °F 29.5 °F 94% 30.33 in - West 2.3 mph - N/A   Unknown
6:00 PM 31.8 °F 31.1 °F 97% 30.34 in - Calm Calm - N/A   Unknown
7:00 PM 30.0 °F 29.1 °F 96% 30.35 in - Calm Calm - N/A   Unknown
8:00 PM 31.3 °F 30.6 °F 97% 30.35 in - Calm Calm - N/A   Unknown
9:00 PM 31.8 °F 31.1 °F 97% 30.36 in - Calm Calm - N/A   Unknown
10:00 PM 32 °F 31 °F 97% 30.36 in - Calm Calm - -  
10:00 PM 31.6 °F 31.5 °F 99% 30.36 in - Calm Calm - N/A   Unknown
11:00 PM 31.3 °F 31.6 °F 100% 30.35 in - Calm Calm - N/A   Unknown